DW5868 Weather Reports


time (UTC)temp
F
wind
direction
speed
knots
gust
knots
rain 1hr
in
rain 24hr
in
rain mn
in
humidity
%
barometer
mb
20260504000035 50 206 2.6 15.6 0.00 0.00 0.00 49 1006.3
20260503234537 50 286 0.9 9.6 0.00 0.00 0.00 52 1006.2
20260503233035 47 244 2.6 11.3 0.00 0.00 0.00 53 1006.3
20260503231535 47 268 2.6 10.4 0.00 0.00 0.00 53 1006.4
20260503230034 47 237 0.9 6.1 0.00 0.00 0.00 51 1006.4
20260503224535 47 205 0.9 5.2 0.00 0.00 0.00 50 1006.5
20260503223032 48 248 0.0 4.3 0.00 0.00 0.00 49 1006.9
20260503221533 47 53 0.0 1.7 0.00 0.00 0.00 51 1007.0
20260503220034 46 121 0.0 3.5 0.00 0.00 0.00 51 1006.8
20260503214530 47 148 3.5 8.7 0.00 0.00 0.00 51 1007.1
20260503213031 47 163 0.0 3.5 0.00 0.00 0.00 48 1007.3
20260503211537 47 165 0.0 1.7 0.00 0.00 0.00 48 1007.2
20260503210032 48 230 1.7 3.5 0.00 0.00 0.00 46 1007.3
20260503204532 49 37 0.9 8.7 0.00 0.00 0.00 45 1007.3
20260503203030 48 309 0.0 5.2 0.00 0.00 0.00 46 1007.2
20260503201530 47 242 0.9 6.1 0.00 0.00 0.00 45 1007.1
20260503200030 47 198 0.9 3.5 0.00 0.00 0.00 46 1007.4
20260503194533 46 144 0.0 7.0 0.00 0.00 0.00 48 1007.5
20260503193038 45 229 0.9 5.2 0.00 0.00 0.00 51 1007.3
20260503191528 45 199 0.9 7.0 0.00 0.00 0.00 54 1007.4
20260503190039 47 194 1.7 12.2 0.00 0.00 0.00 49 1007.1
20260503184527 48 245 4.3 14.8 0.00 0.00 0.00 46 1006.9
20260503183027 48 241 2.6 13.0 0.00 0.00 0.00 47 1006.8
20260503181527 48 269 1.7 11.3 0.00 0.00 0.00 47 1006.6
20260503180027 50 280 2.6 7.8 0.00 0.00 0.00 46 1006.5
20260503174528 54 267 0.9 4.3 0.00 0.00 0.00 41 1006.6
20260503173025 54 18 0.0 4.3 0.00 0.00 0.00 44 1006.7
20260503171524 52 138 1.7 6.1 0.00 0.00 0.00 45 1006.8
20260503081526 42 273 0.0 2.6 0.00 0.00 0.00 67 1008.2
20260503071509 45 234 1.7 5.2 0.00 0.00 0.00 61 1008.6
20260503054520 45 263 0.9 5.2 0.00 0.00 0.00 62 1008.8
20260503053005 46 284 2.6 7.8 0.00 0.00 0.00 61 1008.7
20260503051505 46 271 2.6 6.1 0.00 0.00 0.00 61 1008.9
20260503050004 45 283 2.6 7.0 0.00 0.00 0.00 62 1008.9
20260503044510 44 58 0.0 0.9 0.00 0.00 0.00 65 1008.9
20260503043003 45 282 0.0 3.5 0.00 0.00 0.00 64 1008.9
20260503041503 46 287 0.9 10.4 0.00 0.00 0.00 61 1008.9
20260503040004 45 253 1.7 6.1 0.00 0.00 0.00 63 1008.7
20260503034503 46 246 1.7 6.1 0.00 0.00 0.00 62 1008.6
20260503033003 47 227 1.7 5.2 0.00 0.00 0.00 62 1008.6
20260503031502 47 205 0.9 5.2 0.00 0.00 0.00 59 1008.5
20260503030002 48 267 0.0 6.1 0.00 0.00 0.00 59 1008.4
20260503024501 48 265 0.9 5.2 0.00 0.00 0.00 58 1008.5
20260503023002 48 198 0.0 4.3 0.00 0.00 0.00 58 1008.2
20260503021502 49 223 0.0 3.5 0.00 0.00 0.00 57 1008.1
20260503020001 50 234 0.0 2.6 0.00 0.00 0.00 57 1007.9
20260503014623 50 310 0.9 7.8 0.00 0.00 0.00 56 1007.8
20260503013100 50 132 0.9 6.1 0.00 0.00 0.00 55 1007.8
20260503011559 51 183 1.7 6.1 0.00 0.00 0.00 54 1007.8
20260503010103 52 137 2.6 6.1 0.00 0.00 0.00 52 1008.1
20260503004559 52 215 1.7 6.1 0.00 0.00 0.00 51 1007.9
20260503003106 52 298 0.9 8.7 0.00 0.00 0.00 51 1008.0
20260503001612 51 203 1.7 7.0 0.00 0.00 0.00 52 1008.0